Weather History for Charlottetown, PE

Change the Weather History Date:

Friday, May 30, 2014

  Actual Average Record
Temperature  
Mean Temperature 59 °F -  
Max Temperature 72 °F 67 °F 77 °F (1999)
Min Temperature 46 °F 49 °F 30 °F (2000)
Degree Days  
Heating Degree Days 6    
Growing Degree Days 9 (Base 50)    
Moisture  
Dew Point 36 °F    
Average Humidity 44    
Maximum Humidity 71    
Minimum Humidity 16    
Precipitation  
Precipitation 0.00 in 0.12 in - ()
Sea Level Pressure  
Sea Level Pressure 30.06 in    
Wind  
Wind Speed 8 mph ()    
Max Wind Speed 12 mph    
Max Gust Speed -    
Visibility 15.0 miles    
Events      
Averages and records for this station are not official NWS values.
T = Trace of Precipitation, MM = Missing Value Source: Averaged Metar Reports

Daily Weather History Graph

Daily Weather History Graph

Search for Another Location

Airport:

Trip Planner

Search our weather history database for the weather conditions in past years. The results will help you decide how hot, cold, wet, or windy it might be!

Date:

Astronomy

May. 30, 2014 Rise Set
Actual Time 5:25 AM ADT 8:55 PM ADT
Civil Twilight 4:48 AM ADT 9:32 PM ADT
Nautical Twilight 3:58 AM ADT 10:22 PM ADT
Astronomical Twilight 2:53 AM ADT 11:27 PM ADT
Moon 7:09 AM ADT (5/30) 10:24 PM ADT (5/30)
Length of Visible Light 16h 44m
Length of Day
15h 29m
Waxing Crescent, 3% of the Moon is Illuminated
May 30
Waxing Crescent
Jun 5
First Quarter
Jun 13
Full
Jun 19
Last Quarter
Jun 27
New

Hourly Weather History & Observations

Time (ADT) Temp. Windchill Dew Point Humidity Pressure Visibility Wind Dir Wind Speed Gust Speed Precip Events Conditions
12:00 AM 55.4 °F - 32.0 °F 41% 30.05 in 15.0 mi SW 10.4 mph - N/A   Mostly Cloudy
1:00 AM 53.6 °F - 32.0 °F 44% 30.05 in 15.0 mi SW 9.2 mph - N/A   Mostly Cloudy
2:00 AM 50.0 °F - 33.8 °F 54% 30.04 in 15.0 mi SW 6.9 mph - N/A   Mostly Cloudy
3:00 AM 49 °F - 33 °F 42% 30.04 in 15 mi SW 9.2 mph - -   Clear
3:00 AM 50.0 °F - 33.8 °F 54% 30.04 in 15.0 mi SW 9.2 mph - N/A   Scattered Clouds
4:00 AM 48.2 °F - 33.8 °F 58% 30.03 in 15.0 mi SW 8.1 mph - N/A   Mostly Cloudy
5:00 AM 46.4 °F 42.4 °F 37.4 °F 71% 30.03 in 15.0 mi SW 8.1 mph - N/A   Mostly Cloudy
6:00 AM 46.4 °F 42.4 °F 37.4 °F 71% 30.04 in 15.0 mi SSW 8.1 mph - N/A   Mostly Cloudy
7:00 AM 48.2 °F - 37.4 °F 66% 30.05 in 15.0 mi SSW 6.9 mph - N/A   Mostly Cloudy
8:00 AM 53.6 °F - 39.2 °F 58% 30.06 in 15.0 mi SW 10.4 mph - N/A   Mostly Cloudy
9:00 AM 57 °F - 39 °F 39% 30.06 in 15 mi SW 10.4 mph - -   Scattered Clouds
9:00 AM 57.2 °F - 39.2 °F 51% 30.06 in 15.0 mi SW 10.4 mph - N/A   Mostly Cloudy
10:00 AM 59.0 °F - 41.0 °F 51% 30.06 in 15.0 mi WSW 9.2 mph - N/A   Mostly Cloudy
11:00 AM 60.8 °F - 39.2 °F 45% 30.06 in 15.0 mi SW 10.4 mph - N/A   Mostly Cloudy
12:00 PM - - - N/A% - 15.0 mi SW 11.5 mph - N/A   Mostly Cloudy
1:00 PM 71.6 °F - - N/A% 30.06 in 15.0 mi SW 11.5 mph - N/A   Mostly Cloudy
2:00 PM 69.8 °F - 35.6 °F 28% 30.05 in 15.0 mi SW 11.5 mph - N/A   Mostly Cloudy
3:00 PM 70 °F - 34 °F 16% 30.06 in 15 mi SW 10.4 mph - -   Clear
3:00 PM 69.8 °F - 33.8 °F 27% 30.06 in 15.0 mi SW 11.5 mph - N/A   Mostly Cloudy
4:00 PM 71.6 °F - 35.6 °F 27% 30.05 in 15.0 mi South 10.4 mph - N/A   Mostly Cloudy
5:00 PM 71.6 °F - 37.4 °F 29% 30.05 in 15.0 mi South 9.2 mph - N/A   Mostly Cloudy
6:00 PM 69.8 °F - 35.6 °F 28% 30.05 in 15.0 mi South 6.9 mph - N/A   Mostly Cloudy
7:00 PM 68.0 °F - 39.2 °F 35% 30.06 in 15.0 mi South 6.9 mph - N/A   Mostly Cloudy
8:00 PM 64.4 °F - 37.4 °F 37% 30.08 in 15.0 mi South 11.5 mph - N/A   Mostly Cloudy
9:00 PM 61 °F - 38 °F 31% 30.11 in 15 mi SSW 8.1 mph - -   Scattered Clouds
9:00 PM 60.8 °F - 39.2 °F 45% 30.10 in 15.0 mi SSW 8.1 mph - N/A   Mostly Cloudy
10:00 PM 59.0 °F - 35.6 °F 42% 30.12 in 15.0 mi SSW 8.1 mph - N/A   Mostly Cloudy
11:00 PM 57.2 °F - 33.8 °F 41% 30.13 in 15.0 mi SSW 10.4 mph - N/A   Mostly Cloudy